BREEZE-M R/B

基本信息
目录编号:
43433
目录名称:
BREEZE-M R/B
国际标识:
2018-037B
轨道中心:
EARTH
物体状态:
在轨
发射日期:
2018-04-18 UTC
国别:
俄罗斯(独联体) (CIS)
轨道信息
数据来源: 国际轨道数据
星历时间: 2026-07-12T22:19:35+0800
半长轴: 45143.063km
偏心率: 0.0675144
轨道倾角: 8.217°
近地点辐角: 28.976°
升交点赤经: 70.981°
平近点角: 334.573°
近地点: 35717.119km
远地点: 41812.733km
周期: 1590.912分钟
每日圈数: 0.905141
详细信息
发射场:
TTMTR
轨道高度:
MEO
数据来源:
AOE Integration Group
参考系:
TEME
时间系统:
UTC
历元类型:
SGP4
2D轨道图
3D轨道图
轨道高度分析图
轨道倾角分析图
轨道综合分析图
查看轨道综合分析图